Probability
0 0 0 0 0 0 0 0 0 0 1 4 7 8 7 7 9 10 9 9 10 11 16 20 20 19 17 18 20 22 21 20 22 23 22 22 24 23 21 19 19 18 16 15
0 0 0 0 0 0 0 0 0 0 1 5 9 10 8 9 11 11 10 10 11 13 17 20 21 21 21 22 23 23 22 21 22 22 24 25 25 23 20 19 18 18 17 16
0 0 0 0 0 0 0 1 1 1 4 9 12 11 9 10 12 11 10 10 12 12 14 18 20 22 24 26 26 25 25 24 23 24 25 26 25 22 20 18 18 18 18 17
0 0 0 0 0 1 2 4 5 6 9 14 15 12 10 10 10 10 10 11 11 10 10 12 14 19 23 27 29 29 29 27 25 26 27 26 24 22 21 20 20 20 19 19
0 0 0 0 0 1 3 5 8 10 13 15 14 12 11 9 8 8 10 11 10 9 9 9 11 15 20 25 31 33 32 29 27 27 28 25 23 23 24 23 22 22 21 21
0 0 0 0 0 1 1 3 7 11 12 11 10 10 9 8 7 8 9 10 9 9 8 8 10 13 18 23 28 31 31 30 28 27 26 25 24 25 25 24 23 23 23 22
0 0 0 1 1 1 0 1 4 8 8 6 6 7 7 8 8 7 7 7 7 7 6 7 8 11 15 18 20 22 25 26 25 24 23 24 23 22 22 22 22 22 21 20
0 1 1 2 2 1 0 0 2 5 5 4 4 6 8 9 8 6 5 5 5 5 5 6 7 9 12 13 13 14 17 19 20 20 20 20 19 18 18 19 19 18 17 15
1 1 2 2 1 1 0 0 1 3 2 2 4 6 8 8 7 5 5 5 5 4 6 8 8 8 9 11 12 13 14 16 17 18 19 18 16 16 16 16 15 14 12 10
0 1 1 1 0 0 1 1 2 2 1 1 3 5 6 6 5 4 5 6 6 5 7 9 9 8 8 11 13 13 15 15 16 18 19 17 14 13 13 13 11 10 8 6
0 0 1 0 0 0 1 3 3 1 0 0 1 1 2 3 4 4 4 5 6 6 7 9 9 7 7 10 11 13 14 14 15 16 17 14 10 8 8 8 7 6 5 4
0 0 0 0 0 0 1 2 1 0 0 0 0 0 1 2 4 4 4 4 6 6 7 9 9 7 7 8 10 12 13 14 15 15 15 11 6 4 4 5 4 4 3 3
0 0 0 0 0 0 0 0 0 0 0 0 0 0 0 1 4 5 4 5 6 7 7 8 8 7 7 8 9 12 13 14 15 15 13 9 5 3 3 3 3 2 2 2
0 0 0 0 0 0 0 0 0 0 0 0 0 0 0 0 2 4 5 6 8 7 7 7 7 8 9 9 10 11 13 15 15 14 12 8 4 3 3 3 3 2 1 1
0 0 0 0 0 0 0 0 0 1 1 1 0 0 0 0 1 3 6 7 9 9 7 7 6 7 9 10 10 11 13 14 13 12 10 7 4 3 3 3 3 3 1 0
0 0 0 0 0 0 0 0 0 1 2 2 1 0 0 1 2 4 6 7 8 9 8 7 6 7 9 9 9 11 12 12 11 10 9 6 4 3 3 3 3 3 2 1
0 0 0 0 0 0 0 0 0 1 2 2 1 0 0 1 2 4 6 7 7 8 7 6 6 7 8 8 8 10 11 11 10 10 8 5 3 3 3 3 3 3 2 1
0 0 0 0 0 0 0 0 0 1 1 1 0 0 1 1 2 3 5 6 6 5 3 2 3 5 6 5 5 7 9 9 9 9 7 4 3 3 3 3 3 3 2 1
0 0 0 0 0 0 0 0 0 0 0 0 0 0 1 1 2 2 3 4 3 2 0 0 2 4 4 3 3 5 7 8 8 7 5 3 3 3 3 3 4 3 2 1
0 0 0 0 0 0 0 0 0 0 0 0 0 0 0 1 1 1 1 2 2 1 0 0 1 3 2 1 2 4 6 7 6 5 3 2 2 2 2 3 3 2 1 0
0 0 0 0 0 0 0 0 0 0 0 0 0 0 0 0 0 0 0 1 1 0 0 0 0 1 1 0 1 4 6 5 5 3 1 0 1 1 1 1 1 1 0 0
0 0 0 0 0 0 0 0 0 0 0 0 0 0 0 0 0 0 0 0 0 0 0 0 0 0 0 0 1 2 3 3 2 1 0 0 0 0 0 0 0 0 0 0
0 0 0 0 0 0 0 0 0 0 0 0 0 0 0 0 0 0 0 0 0 0 0 0 0 0 0 0 0 1 1 1 0 0 0 0 0 0 0 0 0 0 0 0
0 0 0 0 0 0 0 0 0 0 0 0 0 0 0 0 0 0 0 0 0 0 0 0 0 0 0 0 0 0 0 0 0 1 1 0 0 0 0 0 0 0 0 0
0 0 0 0 0 0 0 0 0 0 0 0 0 0 0 0 0 0 0 0 0 0 0 0 0 0 0 0 0 0 0 0 0 1 1 0 0 0 0 0 0 0 0 0
0 0 0 0 0 0 0 0 0 0 0 0 0 0 0 0 0 0 0 0 0 0 0 0 0 0 0 0 0 0 0 0 0 1 1 0 0 1 1 0 0 0 0 0
0 0 0 0 0 0 0 0 0 0 0 0 0 0 0 0 0 0 0 0 0 0 0 0 0 0 0 0 0 0 0 0 0 0 0 0 1 2 2 1 0 0 0 0
Wind_Speed
5 5 4 5 6 6 6 9 9 10 10 11 8 7 6 4 2 2 2 3 4 5 5 6 7 7 7 7 7 7 7 7 7 6 6 6 5 5 5 5 5 4 4 3
3 3 4 6 7 7 7 6 7 7 10 7 4 2 3 4 4 3 3 3 4 4 4 6 7 7 7 7 7 7 7 7 6 6 6 6 6 5 5 5 4 4 4 4
3 4 2 6 5 5 5 4 5 8 9 3 2 4 6 6 5 4 4 3 3 4 4 5 6 7 8 7 7 8 8 7 6 6 6 6 6 5 5 5 4 4 4 4
1 1 6 8 2 2 3 4 3 5 5 3 4 3 2 3 5 4 4 3 3 2 2 3 3 4 5 6 6 7 7 7 6 6 6 6 5 6 5 4 4 4 4 4
3 3 7 7 2 1 1 4 3 3 3 2 1 2 2 2 2 4 4 3 4 4 3 2 2 3 5 5 5 5 6 6 6 6 6 5 6 5 4 4 4 4 3 4
3 3 7 7 4 2 1 4 3 2 2 2 1 1 5 2 1 1 1 1 2 3 3 3 2 3 4 5 4 4 5 5 5 5 6 6 6 4 3 4 4 4 3 3
4 4 8 6 5 2 2 6 4 2 3 2 3 5 3 1 1 1 1 2 4 5 4 2 2 3 3 3 3 4 3 3 3 4 5 5 4 3 3 3 3 2 2 1
4 4 8 3 1 2 5 3 2 3 3 2 1 1 1 1 1 2 2 2 4 4 3 2 3 4 3 2 2 1 2 3 3 3 3 4 4 4 4 4 3 2 2 1
7 7 6 3 4 4 3 3 3 2 3 2 1 0 0 1 1 2 2 2 3 4 4 2 2 3 3 2 2 2 2 2 3 3 3 3 4 4 3 3 3 2 2 1
4 6 6 6 4 3 3 3 3 3 3 2 2 1 1 1 1 1 2 2 2 4 4 2 1 1 1 1 2 3 3 2 3 3 3 3 3 3 3 3 3 2 2 2
5 7 6 5 4 4 4 3 3 4 3 2 3 2 2 2 2 2 2 2 2 4 4 3 2 1 1 2 3 3 3 2 3 3 3 3 3 2 3 2 3 4 3 3
7 7 5 7 6 4 3 3 3 3 2 2 3 3 2 2 1 2 2 2 2 3 3 2 2 2 1 2 4 4 3 2 2 3 3 3 3 3 4 3 3 3 3 4
8 7 6 7 6 5 4 4 4 2 2 2 2 3 3 2 2 3 3 3 3 3 3 2 2 2 1 3 3 4 3 3 3 3 3 3 3 3 2 3 5 4 3 3
6 4 5 6 7 6 4 4 2 1 1 2 2 2 3 2 2 2 3 3 3 3 2 2 2 1 1 3 3 3 3 3 3 3 3 3 3 3 3 3 2 1 2 3
7 6 7 6 5 4 3 1 1 1 1 1 2 3 4 4 4 3 2 2 3 3 2 2 2 1 1 3 4 3 3 2 3 3 3 3 3 3 3 3 2 2 1 1
5 4 4 4 5 4 3 2 3 2 2 2 2 3 3 3 3 2 2 3 3 2 2 2 2 1 2 3 3 3 2 4 4 3 3 3 3 3 3 3 2 2 1 1
4 4 3 3 4 4 4 3 3 3 3 3 3 3 3 3 2 2 1 2 3 2 2 2 2 1 3 3 3 3 2 3 4 3 3 3 2 2 3 3 2 2 2 2
6 6 5 5 4 4 3 3 3 3 3 3 3 3 4 4 3 3 2 2 2 1 1 2 2 2 2 3 3 2 2 2 2 2 2 2 2 2 2 2 2 2 1 1
4 4 4 3 4 4 4 3 3 3 3 3 4 4 3 3 3 2 2 3 3 1 2 1 2 3 3 3 3 2 3 3 2 2 2 2 2 2 2 2 1 2 2 1
2 2 2 2 2 2 2 2 2 2 2 3 4 4 3 2 2 2 2 2 2 2 2 2 3 2 2 2 3 2 3 3 3 2 2 2 2 1 1 1 1 2 2 2
1 1 1 1 1 1 2 3 3 3 2 3 4 4 3 2 2 3 3 1 2 2 2 3 2 2 2 2 2 2 3 3 3 3 2 2 2 2 2 2 2 2 2 2
1 0 0 1 1 1 1 2 3 3 4 3 3 4 3 2 2 1 2 2 2 2 2 2 2 2 3 3 2 2 3 3 3 2 3 2 2 2 2 2 1 1 1 1
2 1 1 2 2 2 2 2 3 4 4 4 4 4 4 3 3 3 1 1 1 3 2 2 3 4 4 3 3 2 2 3 3 3 3 3 2 2 2 2 2 2 1 1
2 1 1 1 2 3 2 1 2 2 3 2 3 4 3 3 1 1 1 2 3 3 2 2 3 4 4 3 2 2 2 2 2 2 2 2 1 1 1 1 1 1 1 1
1 1 0 1 2 2 2 2 3 2 2 2 1 2 2 3 3 2 2 2 3 3 2 2 2 3 3 2 2 2 2 2 2 2 2 2 1 1 1 1 1 1 1 1
0 1 1 1 2 2 2 3 3 2 2 2 1 1 1 2 2 2 2 2 3 2 2 2 2 2 2 2 2 2 2 2 2 1 1 1 1 1 1 1 1 0 1 1
2 2 1 2 1 1 2 3 3 2 2 3 2 1 1 2 2 2 2 2 2 2 2 2 2 2 2 2 2 2 2 2 2 2 1 1 1 1 1 1 1 1 1 1
Wind_Direction
234 240 228 235 239 218 208 199 203 232 234 247 236 226 226 221 216 171 156 167 179 182 179 176 179 183 182 179 174 171 173 184 194 193 187 187 189 192 193 194 198 197 197 207
282 273 250 255 255 239 235 222 229 244 255 252 241 214 212 206 201 196 203 201 194 188 179 182 186 187 185 180 173 168 176 189 190 188 188 191 192 188 191 197 198 196 202 205
262 300 341 267 240 225 232 222 206 228 248 262 228 211 210 206 202 202 206 210 203 193 190 191 191 185 183 183 174 173 179 186 187 190 193 196 195 189 196 199 194 201 209 210
200 50 236 245 257 225 227 257 256 258 264 235 227 222 216 207 190 189 193 193 194 189 190 193 181 175 173 168 170 175 178 188 190 191 196 194 191 199 203 198 198 205 211 214
144 210 271 290 282 189 206 279 303 294 303 329 17 36 331 285 206 194 194 182 178 172 169 158 146 155 157 162 166 177 188 194 196 193 194 192 195 200 199 189 197 202 206 209
149 188 234 251 289 296 111 274 323 345 309 283 71 226 260 277 251 202 161 153 146 128 111 115 132 132 142 153 158 187 201 201 196 191 192 197 198 193 186 185 198 198 207 210
182 218 256 263 297 3 179 253 299 296 279 232 219 232 245 249 276 185 144 144 128 116 119 133 137 121 137 150 177 201 194 181 178 183 185 187 184 177 170 176 179 187 192 205
166 202 250 282 5 181 233 269 282 278 273 268 263 268 226 200 181 137 107 119 128 127 127 125 132 129 141 173 197 169 156 159 168 172 178 171 160 162 161 162 166 172 164 177
195 218 248 271 246 258 238 271 280 265 285 238 194 191 176 190 166 148 135 129 134 136 127 113 127 139 159 201 163 139 142 163 168 161 161 159 161 161 157 154 163 172 169 178
258 266 275 283 282 286 270 269 279 277 282 236 201 197 184 169 144 132 122 128 130 128 125 126 130 133 168 163 136 135 148 161 156 150 145 145 153 158 161 166 167 168 172 182
260 275 295 298 293 297 308 318 329 325 304 228 172 174 178 177 167 156 135 131 140 148 154 167 156 142 137 136 135 138 143 144 144 148 147 141 137 145 159 169 174 176 182 178
241 248 247 274 288 292 293 293 290 301 301 266 179 175 175 187 185 150 143 145 146 147 163 175 164 156 151 149 147 146 146 153 154 143 137 134 125 93 60 82 103 129 157 168
242 258 252 269 284 279 271 275 283 253 212 205 186 167 168 176 176 146 141 155 164 171 178 174 166 174 183 163 150 151 157 158 147 137 135 136 136 136 120 62 62 68 86 124
248 250 270 272 273 276 271 273 275 237 217 186 178 158 151 154 151 156 178 183 163 147 145 147 146 174 192 159 143 141 146 145 140 142 143 143 142 143 145 145 128 67 50 91
263 248 245 263 277 278 267 244 202 187 197 197 163 164 166 168 176 193 193 156 125 118 128 134 135 176 168 145 141 144 146 146 141 138 139 139 138 138 140 144 148 144 96 51
277 278 253 247 252 257 240 217 195 211 214 205 190 193 188 177 174 178 167 139 133 148 162 147 150 172 142 138 137 136 139 143 138 135 134 133 138 141 143 149 156 164 181 186
252 267 255 245 243 245 231 219 207 206 209 199 196 184 156 141 143 171 184 162 156 162 166 164 167 148 133 132 135 142 137 135 131 127 132 140 147 157 162 166 172 180 202 204
233 237 228 216 219 231 229 215 205 200 204 198 171 156 154 157 176 192 180 131 110 100 164 174 158 143 148 142 145 140 132 132 134 136 135 136 146 156 162 173 182 187 206 201
251 244 243 236 236 226 212 207 200 192 180 157 156 165 170 172 174 168 136 131 142 175 239 174 158 155 155 158 148 144 147 146 137 130 129 132 136 149 165 181 195 205 203 198
285 263 246 253 245 213 201 194 173 165 161 150 147 146 150 167 160 145 141 173 214 214 198 154 147 151 158 161 152 156 154 149 146 143 139 143 152 166 176 183 189 201 202 202
302 297 304 235 207 159 160 160 156 158 156 150 151 159 168 172 159 152 152 209 260 201 163 151 149 156 156 148 149 154 153 151 156 162 161 159 162 173 179 180 189 204 196 191
312 310 295 190 142 142 156 154 151 148 145 150 154 151 150 160 164 167 198 210 209 171 149 149 159 168 163 149 140 146 153 161 170 171 170 172 179 187 193 195 205 213 203 200
289 270 240 206 186 167 140 143 149 149 155 167 168 168 173 182 178 170 212 227 164 160 155 161 160 159 157 144 137 146 158 172 178 175 178 183 191 197 200 207 219 222 210 210
288 282 258 178 128 124 141 160 139 141 150 159 171 172 166 156 153 189 178 147 137 145 148 161 156 148 143 137 148 158 170 182 184 175 174 175 183 191 190 198 217 215 194 198
264 260 120 126 139 160 171 146 119 113 115 112 126 149 157 155 158 161 136 132 130 131 131 125 129 133 130 139 149 160 172 177 175 163 157 153 153 157 161 170 189 187 177 186
53 100 128 151 160 155 145 133 127 128 127 119 99 104 110 110 121 120 114 115 113 119 124 105 99 114 123 127 134 141 137 130 128 127 134 139 141 143 142 149 174 196 200 203
51 54 54 53 58 103 126 132 136 142 146 143 137 127 122 116 113 113 113 112 108 105 105 101 103 110 115 121 124 122 121 126 134 144 154 159 159 160 168 177 193 199 200 204